Theta_e
311 310 311 311 310 310 310 311 311 311 311 312 312 311 313 316 319 322 325 320 319 317 317 322 324 325 326 328 329 330 333 333 335 337 335 336 337 336 338 337 336 337 336 338 340
311 311 311 311 311 311 311 311 311 311 311 311 312 312 315 318 323 325 323 320 316 316 318 323 326 327 328 329 330 331 332 332 332 333 337 336 336 336 339 340 339 337 337 338 340
311 310 311 311 311 311 311 311 311 311 311 311 312 313 316 319 325 326 320 320 316 317 323 324 326 328 330 330 330 330 332 332 332 332 333 335 336 336 339 339 338 339 338 339 340
311 310 310 310 310 311 311 311 311 311 312 311 312 314 318 319 328 325 318 319 317 317 324 324 326 329 331 331 329 330 331 331 332 332 334 336 335 337 337 338 338 338 338 339 340
311 310 310 310 310 310 311 311 311 311 311 311 312 315 318 323 324 321 316 318 318 319 324 326 329 330 332 331 330 331 332 333 333 332 335 334 336 337 338 337 339 338 339 340 343
311 311 310 310 310 310 310 311 311 311 311 311 313 315 320 323 322 322 318 319 321 322 325 327 330 329 330 331 331 331 334 334 334 334 336 337 339 339 339 339 340 340 341 344 346
311 311 311 310 310 310 310 311 311 311 311 311 313 315 320 323 322 322 317 321 323 324 326 327 327 329 330 332 331 332 335 333 335 335 336 333 335 342 341 341 341 343 344 344 343
311 311 311 311 310 310 311 311 311 311 311 312 314 316 324 322 322 322 322 320 321 323 324 325 326 327 330 331 332 333 335 335 334 333 337 334 340 340 340 339 340 340 341 344 343
311 311 311 311 310 310 311 311 311 311 312 313 318 322 324 322 324 324 325 324 323 323 324 324 325 329 331 333 333 333 332 335 335 334 337 340 343 340 339 339 341 343 344 345 346
312 311 311 311 310 310 310 311 311 312 313 315 319 323 323 325 325 325 326 326 326 326 327 326 328 332 333 333 335 334 333 333 333 335 336 339 341 339 337 338 338 342 344 345 345
312 312 311 311 310 310 311 313 318 322 318 324 323 325 325 324 324 325 326 327 327 328 332 330 332 332 332 332 331 331 332 333 333 334 336 339 340 339 337 337 339 341 343 344 343
312 312 311 310 310 310 311 317 319 317 322 322 322 322 323 324 326 327 326 328 329 332 332 331 332 331 332 331 331 331 336 337 334 334 336 337 338 338 337 338 339 339 341 342 342
313 313 311 311 311 311 315 317 318 318 323 323 323 324 324 325 327 327 327 329 331 332 331 331 332 331 331 331 334 334 332 332 335 334 336 338 338 338 338 338 338 339 340 340 339
314 313 312 310 311 315 317 318 317 318 327 326 324 325 325 326 328 328 328 329 331 331 330 332 331 330 331 331 330 333 331 331 332 335 338 337 341 340 339 340 339 339 339 337 334
314 313 312 310 317 315 319 318 318 320 331 327 325 325 325 327 328 327 327 328 331 330 330 332 330 330 332 332 331 332 332 333 333 335 337 337 340 339 335 340 339 337 335 334 332
314 314 312 311 311 317 317 319 319 330 330 326 326 325 326 326 328 328 328 329 330 330 330 332 332 333 332 331 331 332 335 336 340 337 342 338 341 340 336 339 338 336 334 333 331
313 313 312 312 317 315 318 322 327 329 328 327 327 326 325 327 328 329 330 331 330 332 333 332 332 332 331 331 335 334 335 338 344 341 341 337 333 341 337 337 337 336 334 332 331
313 313 313 311 315 316 320 328 332 327 326 327 327 326 326 326 327 328 330 329 330 332 333 333 333 333 332 332 331 330 334 336 337 333 331 336 340 340 337 336 335 334 334 332 330
313 315 316 316 313 317 323 329 328 328 329 327 326 326 326 326 327 328 329 329 329 332 334 334 336 333 332 331 331 331 335 334 334 335 336 338 339 337 337 337 334 334 333 331 330
315 319 318 317 314 319 325 329 330 329 329 328 325 326 327 326 327 328 329 329 329 332 334 333 335 332 333 331 334 333 331 332 336 335 332 334 340 343 338 338 336 334 333 332 330
317 319 321 315 315 320 326 328 329 328 328 328 326 327 327 327 327 328 329 329 329 331 332 333 332 335 331 335 331 333 336 333 334 337 334 332 339 334 337 337 336 334 332 332 329
320 321 319 316 321 322 326 328 325 328 328 329 330 327 328 327 327 328 329 329 329 329 331 335 334 333 335 333 332 331 331 332 334 334 334 333 339 335 335 335 335 333 331 331 329
320 323 317 322 325 324 325 327 327 327 330 328 329 330 329 328 328 328 329 335 334 332 334 332 333 335 338 337 335 332 331 330 332 337 337 336 341 335 335 335 334 332 331 330 329
320 324 318 321 324 329 327 327 327 325 328 330 330 332 331 329 330 329 332 334 335 337 334 337 336 334 334 331 329 333 332 332 333 338 336 336 337 337 336 336 334 333 331 330 328
321 325 321 322 324 327 326 326 327 329 328 329 333 331 331 332 329 330 331 336 335 331 335 339 334 333 332 330 330 331 331 332 332 333 334 335 333 337 337 336 335 333 331 330 328
327 328 323 327 323 325 323 328 328 330 331 331 334 331 330 334 330 330 332 333 335 335 337 341 336 334 334 333 331 331 332 332 332 332 333 334 339 335 334 334 334 332 331 330 326
324 326 328 323 327 327 327 328 328 331 330 331 335 333 334 335 335 334 331 333 334 338 339 337 338 336 335 335 332 333 333 332 332 333 335 336 337 334 334 334 333 332 330 329 325
Wind_Speed
7 8 8 9 9 10 9 10 13 13 14 15 15 15 14 13 3 1 1 3 8 7 9 6 10 11 9 13 8 8 4 4 16 18 14 31 8 11 5 16 13 13 17 19 16
7 8 8 9 10 10 10 10 13 14 13 14 14 13 12 12 1 5 5 4 7 9 9 9 10 9 14 6 5 13 4 16 10 11 16 6 11 7 10 36 18 14 17 19 16
8 8 9 10 10 11 11 11 13 15 13 13 13 11 10 8 6 6 4 3 8 12 7 10 8 7 16 4 1 4 10 5 9 9 8 7 13 7 21 13 15 27 16 16 14
7 9 10 10 11 11 11 12 12 14 13 12 11 9 9 7 2 1 5 5 9 13 5 8 8 13 11 3 2 11 8 4 7 4 3 5 9 14 17 14 11 16 13 13 11
8 9 10 10 11 11 11 12 11 13 12 10 10 9 8 7 2 4 3 9 11 10 7 9 11 11 9 2 3 9 3 1 3 6 5 1 15 15 14 10 11 13 12 12 14
7 9 10 10 10 11 10 11 11 12 10 9 8 8 8 11 2 1 5 12 9 8 8 8 6 7 9 3 9 3 1 5 4 9 7 30 24 18 11 11 12 14 16 15 12
8 8 9 10 10 10 10 10 10 11 8 7 7 10 6 5 2 1 7 9 9 8 7 6 7 9 3 8 4 5 27 22 8 5 12 27 22 13 13 16 18 20 17 14 11
9 10 10 10 9 10 9 9 9 10 6 6 6 5 4 3 3 4 8 8 10 8 7 7 8 10 13 3 11 7 11 12 10 7 41 33 18 10 15 20 18 17 13 15 10
9 10 10 9 8 8 7 8 8 8 5 4 4 2 3 3 3 7 11 11 9 8 8 10 8 17 10 5 14 23 2 20 11 15 12 20 15 13 13 16 16 14 14 13 10
9 10 9 8 7 6 5 6 6 6 5 2 4 5 6 7 6 8 11 8 9 8 8 11 13 11 14 11 11 16 13 3 13 10 12 14 14 10 14 19 15 15 14 14 12
9 10 8 7 6 5 4 5 5 3 8 6 12 6 7 3 6 9 11 10 8 12 16 17 6 13 12 12 11 5 4 8 6 3 7 11 11 11 10 16 17 18 17 16 16
9 9 8 6 4 3 2 3 5 3 8 9 8 6 4 5 12 13 12 12 13 17 12 8 6 7 7 5 4 4 23 20 5 5 6 11 11 11 13 15 18 17 16 13 11
9 9 7 5 4 3 5 4 3 5 8 9 6 9 10 11 15 17 15 15 18 16 15 3 3 5 5 8 18 20 11 4 2 6 7 21 9 6 16 18 17 15 12 11 11
9 8 5 2 1 3 4 4 6 5 5 11 11 11 11 12 7 16 13 10 11 13 5 3 9 4 11 1 12 9 9 6 3 11 6 15 5 6 3 14 13 13 12 13 12
9 8 4 5 3 3 3 4 4 2 6 15 13 10 17 17 17 12 8 9 13 5 8 6 10 12 6 9 10 9 10 8 5 14 11 14 2 3 11 16 11 12 11 12 12
9 7 4 4 6 6 4 6 1 7 3 9 11 12 15 21 12 18 12 14 6 2 16 6 7 9 11 3 4 7 5 4 19 9 6 21 14 8 7 7 10 12 10 9 9
9 6 5 7 2 5 5 2 7 8 5 10 15 15 17 15 14 10 13 13 10 10 8 9 10 6 3 6 13 13 9 2 5 4 4 7 3 10 8 8 11 10 8 7 6
10 5 5 10 6 4 4 7 8 3 9 3 12 12 14 15 12 14 14 13 17 17 11 11 9 6 2 7 12 15 8 8 14 11 9 16 5 7 12 13 12 9 7 6 8
10 4 5 5 10 6 9 9 4 6 5 7 9 13 10 11 11 14 13 13 12 11 9 6 11 7 6 4 6 10 6 11 9 17 10 4 11 12 9 11 11 9 6 6 6
6 4 5 7 10 6 9 11 4 3 3 7 12 14 12 14 11 16 15 8 6 7 5 4 3 5 8 9 4 4 6 8 6 7 12 6 14 7 10 10 8 7 5 5 4
3 6 5 7 10 10 9 7 3 7 3 6 12 12 8 14 15 16 14 9 4 8 8 4 4 7 5 5 10 4 2 3 4 5 7 8 7 6 8 11 8 5 5 4 2
5 7 5 12 11 16 12 3 4 1 5 7 8 10 8 7 13 14 10 9 9 9 11 3 3 3 4 5 1 3 6 4 7 7 3 7 4 5 7 13 9 6 4 5 4
8 3 7 11 7 11 18 3 6 4 4 10 8 8 5 7 5 5 4 6 5 10 2 6 5 8 3 2 3 4 5 1 1 9 6 10 3 4 10 11 9 7 7 5 3
7 5 8 13 19 11 15 11 11 8 6 6 8 6 10 10 6 7 7 4 6 2 1 2 1 7 7 10 6 3 4 1 2 8 9 7 7 8 8 8 6 7 4 2 3
9 4 7 9 14 12 9 10 11 7 6 7 9 14 14 10 13 8 11 9 8 9 5 3 7 5 4 4 6 4 5 4 7 7 6 11 8 7 10 9 9 6 4 1 3
7 6 8 9 16 12 6 10 11 7 4 9 7 16 16 10 10 9 7 10 8 11 9 5 3 5 6 4 7 7 2 6 2 4 5 6 13 8 6 8 9 7 3 1 5
5 7 7 9 9 10 11 12 9 1 3 1 8 9 11 4 2 5 9 7 5 11 9 8 4 5 9 1 6 10 7 2 2 3 5 9 9 5 3 7 8 7 2 4 3
Wind_Direction
306 303 306 303 306 308 311 317 311 314 319 324 330 335 335 325 321 17 304 220 224 220 187 206 231 251 267 268 283 280 290 89 92 115 290 111 117 94 142 114 91 90 95 124 137
314 313 310 303 301 303 306 311 310 310 319 325 332 339 336 333 212 246 264 272 200 168 169 204 226 235 253 260 260 280 94 65 28 23 75 58 122 126 128 92 254 80 112 126 137
319 318 314 307 301 298 300 306 308 307 318 325 332 342 336 316 277 123 258 230 171 166 162 222 263 241 263 239 112 349 29 40 76 25 354 122 78 80 82 245 57 162 121 129 140
318 319 316 310 303 294 296 300 304 304 316 326 332 343 336 306 335 209 284 201 176 180 230 220 234 237 256 230 106 274 70 4 70 110 231 82 98 49 32 27 34 77 114 131 141
324 323 318 313 304 296 294 295 300 302 315 326 332 346 346 250 29 305 217 171 172 175 212 218 240 254 273 96 178 252 101 154 164 187 340 282 56 86 47 40 74 88 114 124 102
329 327 321 318 304 296 291 290 296 300 312 323 330 342 329 262 16 8 159 166 176 186 219 229 315 330 303 295 279 98 53 111 175 126 67 82 26 23 59 74 92 94 86 82 97
330 331 324 320 308 298 290 287 295 296 309 319 330 336 282 306 179 123 155 168 181 189 208 238 289 279 311 196 220 179 40 339 98 96 120 63 12 41 68 82 86 92 92 81 90
333 333 329 324 311 297 289 287 294 291 304 314 329 326 278 233 194 202 175 184 184 200 233 260 274 265 268 321 215 66 155 204 78 347 95 92 252 92 103 103 103 105 107 98 90
336 333 330 321 309 297 294 291 290 293 289 303 2 345 166 137 147 160 160 167 179 210 241 256 260 250 201 115 1 313 124 96 353 54 109 126 115 109 92 88 96 110 95 100 98
335 334 327 318 306 301 297 295 296 289 267 256 246 243 199 169 148 159 171 167 181 196 224 243 229 232 279 72 206 258 99 17 49 44 105 90 102 107 95 89 91 99 100 88 69
336 333 326 316 306 294 292 322 282 233 219 281 159 302 139 187 189 180 178 178 207 206 217 209 226 270 26 15 0 13 19 88 91 12 89 94 106 96 88 100 95 97 83 83 71
333 330 321 312 292 272 230 253 320 324 260 228 240 247 213 197 183 175 177 191 196 215 231 222 221 58 43 340 286 332 55 332 122 171 139 124 106 109 102 85 88 88 90 90 95
327 324 321 314 292 248 221 254 293 314 249 168 205 192 180 185 187 170 184 211 209 231 212 211 64 91 236 234 78 308 9 44 119 177 197 85 3 257 112 103 101 101 98 86 64
324 321 325 310 360 238 247 236 300 274 249 155 189 198 181 203 210 169 202 248 228 213 208 294 106 228 241 146 341 126 339 296 225 225 212 180 164 63 70 113 107 93 76 78 74
322 314 307 220 208 216 213 305 287 207 220 145 164 146 187 206 158 185 203 247 240 158 268 127 195 219 151 30 348 15 309 295 208 242 126 333 284 285 283 129 109 91 83 82 77
322 309 288 263 250 224 268 297 244 235 153 152 151 184 192 213 193 163 199 231 322 224 220 128 36 4 59 77 354 298 282 345 12 315 154 226 240 152 166 166 119 100 82 74 71
328 304 258 196 129 221 288 219 214 252 131 156 174 184 187 194 193 174 195 199 200 220 166 175 154 114 316 290 351 271 313 220 239 248 270 175 284 89 136 90 93 96 94 77 56
333 300 256 209 228 234 253 224 253 220 171 141 188 182 189 186 195 202 196 199 223 235 174 196 144 160 126 343 337 308 328 321 339 335 345 52 7 157 120 116 109 97 87 76 42
337 307 252 241 216 220 243 223 210 158 63 199 200 187 195 183 200 203 205 202 204 234 261 156 143 119 68 349 311 353 327 5 303 266 273 189 112 93 130 134 134 108 97 77 44
336 264 204 210 197 210 241 261 108 65 263 257 199 198 174 188 212 195 194 205 167 300 338 138 177 163 115 258 167 314 349 304 242 317 323 190 83 158 187 151 126 130 120 90 13
324 230 206 189 180 218 230 211 151 130 212 219 210 209 222 181 213 197 187 150 228 189 254 115 281 123 210 322 359 295 198 346 282 310 322 312 98 28 139 146 151 121 99 109 321
269 233 165 168 205 218 229 230 49 273 157 234 283 207 232 176 220 200 186 180 179 199 207 122 247 280 83 92 62 4 358 331 328 353 5 275 97 50 108 120 137 126 134 82 13
254 175 172 182 219 205 228 182 218 251 180 187 206 252 234 188 234 188 142 89 167 214 221 158 198 244 312 164 190 270 83 315 245 270 29 295 62 143 120 126 139 144 112 157 337
260 196 163 209 256 289 208 212 215 199 246 218 207 188 214 214 212 208 130 131 155 172 45 300 259 286 355 24 353 175 226 308 314 283 344 25 115 132 142 155 152 139 166 97 38
228 251 174 194 224 233 208 210 206 197 212 225 197 203 208 207 204 208 161 144 167 156 173 227 224 267 27 342 286 335 291 326 312 331 298 8 325 73 150 160 156 160 180 112 32
301 299 191 278 218 211 192 216 223 171 213 189 255 201 212 216 208 219 180 191 173 186 183 207 222 271 255 230 288 271 183 277 249 312 262 283 48 17 63 127 140 185 190 94 46
309 282 272 208 210 223 192 224 217 170 151 213 298 200 195 161 97 334 191 184 159 181 181 189 161 237 280 142 303 256 239 97 333 260 352 327 41 42 101 131 175 177 192 56 42